Location: Franzen
(48.6167°N, 15.3833°E)
Time: 10:32:12
(UTC+00:00)

Thor Agena Rocket - Pass Details

Date: 22 April 2021
Orbit: 759 x 807 km, 99.0° (Epoch: 16 May)

Event Time Altitude Azimuth Distance (km) Brightness Sun altitude
Rises 22:25:54 0° 19° (NNE) 3,254 7.7 -28.5°
Reaches altitude 10° 22:28:17 10° 24° (NNE) 2,329 6.7 -28.5°
Enters shadow 22:32:21 46° 66° (ENE) 1,047 4.2 -28.6°
